Theta_e
333 330 328 328 331 333 331 331 331 334 331 327 328 327 327 326 322 318 318 322 324 326 326 326 327 327 326 326 326 327 328 329 329 329 329 328 328 325 321 320 320 318 316 315 313 313 312 310 309 307 307 306 306 306 306 306 306 305 305 305 305 305 305 305 305 306 308 309 309 309 310 310 312 312 312 312 313 314 314 312 309 305 304 304 303
333 329 328 328 329 331 329 328 329 332 331 326 325 325 326 325 324 319 317 322 324 325 326 326 326 326 326 326 326 327 328 328 329 329 329 328 328 326 322 321 321 321 320 318 317 317 316 314 313 312 310 308 308 306 305 306 306 305 305 305 305 305 305 305 305 305 306 307 308 309 309 310 311 312 312 312 313 313 314 313 311 308 305 304 303
332 330 329 328 328 329 330 329 328 329 329 327 324 323 324 323 322 321 318 320 324 325 326 325 326 325 326 326 326 327 328 328 329 328 329 328 328 327 325 322 321 323 323 322 321 321 320 319 317 315 314 313 312 310 308 306 305 305 305 305 305 305 305 305 305 304 305 306 307 308 309 309 310 311 312 312 312 313 313 314 313 310 307 305 303
332 330 330 329 328 329 331 331 330 329 327 327 324 323 325 323 320 319 318 318 321 324 326 326 325 326 326 326 326 326 327 328 328 328 328 328 328 328 327 325 322 323 325 324 324 323 323 323 321 319 317 317 316 314 312 309 307 306 305 305 305 305 305 305 305 304 304 305 306 307 309 309 309 311 312 312 312 312 313 313 314 312 309 306 304
331 330 330 330 329 330 331 331 331 330 328 327 324 323 325 324 319 315 314 315 318 321 323 325 326 326 327 326 327 326 326 327 327 328 328 327 328 328 328 328 326 325 325 325 326 325 325 325 324 323 321 320 319 317 315 313 311 308 306 305 304 304 304 304 305 304 304 305 305 305 307 308 309 310 311 312 312 312 313 313 313 313 311 309 306
330 330 330 330 330 330 330 330 331 331 330 327 324 323 324 324 320 316 314 314 317 319 319 323 325 326 327 327 327 327 326 327 327 327 327 327 327 328 328 329 329 328 327 326 326 326 326 326 326 326 324 322 322 320 317 315 315 313 311 307 305 304 304 304 305 305 304 304 305 305 306 307 309 310 311 312 312 312 312 312 313 313 312 310 307
328 329 329 330 330 330 330 330 330 331 330 328 326 324 323 325 323 321 320 316 316 319 320 322 324 326 327 326 326 327 327 326 326 327 327 326 326 327 328 328 328 328 329 329 328 327 326 326 327 326 326 325 324 322 321 319 318 317 315 311 307 305 304 304 304 305 305 304 304 304 305 306 308 309 311 312 312 312 312 313 312 313 312 310 309
329 328 328 330 331 331 331 330 330 330 330 329 328 326 323 325 326 324 324 322 320 321 322 322 323 325 325 325 326 327 327 327 327 326 326 326 326 327 327 327 327 327 328 328 329 329 327 326 327 327 326 326 326 324 323 323 322 319 317 315 312 308 305 303 303 303 304 304 305 305 305 305 306 308 310 311 312 312 312 313 313 313 313 311 310
330 329 329 329 330 331 331 330 329 329 330 330 329 328 325 325 326 324 324 324 323 323 323 323 324 323 323 324 325 326 326 326 327 326 326 326 327 326 326 325 326 326 325 325 328 330 328 326 326 327 327 327 326 325 325 325 324 323 321 319 316 314 312 309 307 305 304 304 305 305 305 305 306 307 309 311 312 313 312 313 313 313 313 312 311
328 329 330 328 329 331 331 329 330 329 330 331 330 329 327 325 325 325 324 323 323 323 324 324 324 323 323 322 323 325 326 326 326 326 326 326 326 326 325 326 326 326 325 325 327 329 329 328 327 326 326 327 327 326 325 325 325 325 324 322 319 319 319 317 315 313 310 307 307 309 308 306 306 307 308 310 311 312 313 312 312 312 313 312 312
325 326 327 328 328 331 331 330 330 330 329 330 331 330 329 327 325 325 324 323 324 324 323 323 323 323 324 323 322 323 324 325 326 326 326 326 326 326 326 326 326 325 325 326 327 328 327 327 327 327 326 326 326 326 326 325 324 325 325 325 323 323 323 322 321 319 315 310 310 312 312 309 306 307 308 309 311 312 313 313 312 312 313 313 312
323 323 324 325 327 329 330 330 330 330 329 330 331 331 329 328 327 326 325 324 324 323 323 323 323 324 325 324 322 322 323 325 326 327 327 327 327 327 327 327 327 326 324 325 326 327 326 323 324 327 328 328 327 326 326 325 324 324 325 326 325 325 324 323 324 322 318 313 310 310 313 313 309 307 308 309 310 312 313 313 313 312 313 312 313
319 321 322 323 324 326 327 328 329 329 329 330 331 331 330 329 329 328 327 327 326 325 325 325 325 326 326 325 324 323 325 325 325 328 328 328 328 327 327 327 327 327 326 325 325 325 326 325 324 326 328 329 328 327 326 325 323 323 325 326 326 326 325 324 325 324 321 318 314 310 313 318 316 309 306 308 308 310 312 313 313 312 312 313 313
311 315 319 321 322 322 323 325 327 327 328 329 330 330 329 330 330 328 328 328 328 328 327 326 326 326 326 325 325 325 325 326 327 328 329 329 329 329 328 328 328 327 327 327 326 326 327 327 327 327 327 328 328 328 327 326 323 322 325 327 327 327 327 326 326 326 324 321 319 314 312 318 320 313 308 308 309 309 311 312 313 313 313 313 313
310 310 314 319 320 321 321 323 325 325 326 328 329 328 328 329 329 329 329 328 329 329 328 327 326 325 325 327 328 327 326 326 326 327 328 328 329 330 329 329 329 329 329 329 327 327 327 328 328 328 327 327 328 328 329 328 324 323 326 328 328 328 328 328 327 326 326 324 322 319 314 314 319 318 314 314 316 314 311 311 313 313 313 313 313
314 315 316 317 320 321 320 320 322 324 325 327 328 328 327 328 328 329 329 329 329 329 328 327 325 324 327 329 328 328 327 326 324 325 327 328 330 330 330 330 330 330 331 330 329 328 328 328 328 328 328 327 327 327 328 328 325 324 326 328 328 329 329 328 328 327 327 326 324 323 319 314 317 321 319 319 322 319 312 310 312 313 313 313 313
313 316 316 317 319 320 320 319 318 321 324 325 326 326 326 326 327 327 328 329 328 328 328 326 324 324 327 329 329 329 329 328 327 327 326 328 330 330 330 331 331 331 332 331 332 330 328 328 328 328 328 327 326 325 326 327 327 326 325 326 328 328 328 328 328 328 327 326 325 325 324 318 315 320 322 322 323 323 317 313 312 312 313 313 313
310 312 313 314 317 318 319 319 318 319 321 322 322 322 323 323 324 325 326 326 327 327 328 326 324 325 326 327 328 328 329 329 329 329 328 328 329 329 330 331 331 331 332 332 332 332 330 330 329 328 327 327 327 326 326 326 327 327 327 328 328 328 328 328 327 327 328 327 326 325 325 323 318 317 322 325 325 324 323 321 316 313 313 313 313
306 307 308 310 314 316 317 318 318 318 317 318 319 319 320 320 320 322 323 324 326 327 327 326 326 326 325 325 326 326 327 327 327 328 329 328 328 329 330 330 330 331 331 331 332 332 330 329 329 329 328 328 328 328 328 327 327 327 328 328 327 328 328 327 326 326 327 328 327 325 325 326 324 319 319 323 325 326 325 325 323 319 316 314 313
304 304 305 306 309 312 312 314 316 317 316 315 314 314 314 312 311 314 317 319 321 324 325 325 326 326 326 325 326 326 325 325 326 327 328 328 328 328 329 329 329 329 330 330 331 332 331 329 330 330 330 330 329 328 328 329 329 328 328 327 328 328 328 328 327 327 328 327 327 326 325 325 327 325 321 320 322 325 326 326 325 324 321 317 315
305 304 304 304 304 305 306 307 309 312 312 309 306 306 306 305 304 305 308 309 311 315 319 321 322 323 324 324 324 324 325 325 325 326 326 327 327 328 328 328 328 329 330 329 330 330 330 330 330 330 330 330 329 329 328 329 329 329 328 328 328 328 329 328 327 328 328 327 327 327 326 325 326 327 325 322 321 322 325 325 326 326 325 322 319
305 305 305 305 304 304 304 304 304 306 307 305 304 304 304 304 304 303 304 304 304 306 310 312 313 315 317 319 321 321 322 324 324 324 324 324 325 326 326 326 326 328 328 328 329 329 329 329 329 329 330 330 330 330 330 328 327 328 329 329 329 329 329 329 328 328 328 328 327 326 326 326 326 326 326 325 323 322 322 323 325 326 326 326 324
306 306 306 305 305 306 305 305 305 305 305 305 304 305 305 305 305 305 305 305 304 304 304 305 305 306 307 312 315 315 316 319 320 321 321 322 323 323 323 323 323 325 325 326 327 327 327 327 327 328 328 328 329 329 330 328 326 326 327 328 328 329 329 329 329 329 329 328 327 326 326 326 326 326 326 326 326 325 323 322 323 324 325 326 326
306 306 306 306 306 306 305 305 305 305 305 305 305 306 306 306 306 306 306 306 306 306 305 305 304 303 303 304 305 306 308 310 313 315 317 319 320 320 320 321 322 322 323 324 323 322 322 324 325 326 327 327 328 328 329 328 327 326 326 327 328 329 329 329 328 329 328 328 328 327 327 327 327 327 327 327 327 327 326 325 323 323 323 324 325
307 306 306 306 306 306 306 305 305 305 305 305 306 306 306 306 306 306 306 306 306 305 305 305 304 304 304 303 303 303 304 304 305 306 308 312 316 319 318 318 319 319 319 319 320 320 320 321 322 323 325 326 327 328 328 328 328 327 325 325 327 328 328 328 327 327 328 328 328 327 327 327 327 327 327 327 327 327 327 327 326 325 323 323 324
308 307 307 306 306 306 306 306 305 305 305 306 306 306 305 305 305 305 305 305 305 305 305 304 304 304 304 304 304 303 303 303 303 303 303 305 312 315 314 315 316 316 316 315 316 318 320 321 321 321 323 323 324 326 326 326 327 326 324 324 325 327 328 328 327 326 326 327 326 326 326 326 326 326 327 327 328 328 327 326 327 327 326 324 323
310 307 307 307 306 306 306 306 305 305 305 306 305 305 305 305 305 305 305 305 304 304 304 304 303 303 303 303 303 303 303 303 303 303 303 303 306 307 308 311 313 314 315 315 315 315 317 317 318 319 320 321 322 324 325 325 325 324 324 323 323 324 325 326 326 326 325 325 325 325 325 324 324 325 326 327 327 327 327 327 326 327 327 325 324
310 308 307 307 307 306 306 306 306 305 305 305 305 305 305 304 304 304 304 304 304 304 303 303 303 303 303 302 302 302 302 303 303 303 303 303 303 303 304 308 312 313 313 314 315 315 316 317 318 319 320 320 322 323 322 323 324 324 323 322 322 323 324 324 324 324 325 324 324 324 323 323 323 323 325 327 327 327 327 328 327 327 327 326 325
311 309 308 307 307 307 307 307 306 306 305 305 305 305 304 304 304 304 304 304 304 304 303 303 303 303 302 302 302 302 302 302 302 302 302 303 303 303 304 307 310 312 313 313 314 315 316 316 316 317 317 319 321 321 319 319 319 319 319 319 319 320 321 322 322 322 321 322 322 323 322 322 323 323 325 326 327 327 327 327 327 327 327 326 325
311 311 309 308 308 307 307 307 307 306 306 305 305 305 305 304 304 304 304 304 304 304 304 303 303 303 302 301 301 302 301 301 301 301 302 302 302 302 303 305 307 310 311 313 313 313 314 313 314 316 317 317 318 317 315 313 311 308 308 309 311 314 316 317 319 319 319 319 320 322 323 324 324 325 326 327 327 327 327 327 327 327 327 326 326
311 312 311 310 309 308 308 307 307 307 306 306 306 305 305 304 304 304 304 304 304 304 304 304 303 303 303 302 301 301 300 301 301 300 300 301 301 302 303 305 306 306 307 310 312 312 312 313 314 314 314 313 311 310 308 308 307 305 304 304 305 308 309 309 311 314 315 316 317 319 323 325 325 326 326 327 328 328 328 328 328 327 327 327 326
311 311 312 311 310 309 308 308 307 307 307 306 306 306 305 305 304 304 304 304 303 304 304 304 304 303 303 302 301 301 300 301 301 301 301 301 300 300 302 303 305 305 305 307 311 312 311 311 311 309 309 308 306 306 306 307 308 307 305 304 304 305 305 308 312 313 311 311 312 313 317 321 324 326 327 327 327 328 328 328 328 328 327 327 327
312 312 312 312 311 311 309 309 308 307 307 307 306 306 305 305 305 304 303 303 303 303 303 304 304 304 303 302 302 301 301 301 300 301 303 303 302 303 303 303 304 305 306 307 309 310 310 310 310 310 308 306 304 305 307 307 307 306 305 305 305 305 305 310 317 319 316 312 309 310 312 314 318 322 324 325 325 326 328 327 327 327 328 327 327
313 312 312 312 312 312 311 310 309 308 308 307 307 306 306 306 305 305 304 303 303 303 303 303 303 303 303 303 302 301 301 300 299 300 303 303 303 305 306 305 304 305 305 305 307 308 309 309 309 309 308 307 306 306 306 305 304 304 304 305 305 307 310 314 318 320 320 317 311 309 312 314 314 315 317 320 322 323 325 326 325 325 327 327 328
315 314 313 312 312 312 312 311 310 309 309 308 307 306 306 306 305 305 305 304 303 302 302 303 303 303 303 303 302 301 300 300 299 299 300 300 301 304 306 305 304 303 303 302 303 305 307 307 307 308 308 308 306 306 306 305 304 303 304 304 305 308 311 314 316 316 319 319 314 311 315 317 316 314 313 315 318 320 322 323 324 324 325 326 327
315 315 315 314 313 313 312 312 311 311 310 309 308 308 307 306 305 305 305 305 303 303 302 303 303 303 303 303 302 301 300 300 298 298 299 299 300 302 304 305 305 305 304 303 302 303 305 306 306 306 305 305 304 305 306 306 306 306 305 305 306 309 312 313 315 315 316 318 313 309 313 318 318 316 315 314 316 318 320 322 323 324 324 325 327
316 316 316 315 314 313 313 313 312 312 311 310 310 308 307 306 306 305 305 304 304 303 302 302 303 303 303 302 301 300 300 299 298 298 298 298 298 299 300 302 304 305 305 305 305 305 306 306 306 305 304 303 303 304 304 305 306 307 308 307 308 309 309 309 311 313 315 316 313 307 308 314 317 317 316 316 316 317 319 320 321 322 324 324 325
317 317 316 316 315 313 313 313 313 312 312 311 310 309 308 307 306 305 305 304 304 303 302 302 302 302 302 301 300 299 299 298 297 297 297 297 297 298 298 299 300 301 302 303 304 304 305 306 306 306 306 306 305 304 303 304 305 306 306 307 307 308 308 309 310 313 315 316 315 311 306 308 314 317 317 317 317 317 317 319 320 320 321 323 323
316 317 317 317 316 315 313 313 313 313 312 311 311 310 309 308 307 306 305 304 304 303 303 302 302 302 301 300 299 298 297 296 296 296 296 296 296 297 298 299 300 301 301 301 302 302 303 304 305 306 306 306 306 306 305 304 304 304 305 307 309 311 312 313 314 315 316 316 316 313 308 305 308 313 316 318 319 318 318 318 319 319 320 321 322
318 318 318 318 317 316 314 313 313 313 312 311 311 310 309 308 307 306 305 305 304 303 302 302 301 300 300 298 297 296 296 295 295 295 295 295 295 296 297 299 300 301 302 302 302 302 302 303 304 305 305 306 306 306 306 306 306 307 307 308 309 308 307 308 309 311 314 315 315 316 314 310 308 310 313 316 318 319 319 318 318 317 317 319 320
320 320 319 319 318 317 316 314 313 312 312 311 311 310 309 308 307 306 306 305 304 303 302 301 300 299 298 297 296 295 294 294 294 294 294 294 294 295 295 296 297 299 300 302 303 303 303 304 304 304 305 305 305 305 306 307 308 308 308 307 305 304 304 304 305 307 310 312 313 314 315 315 315 315 315 317 319 320 319 318 317 316 316 317 319
320 320 320 319 318 316 316 315 313 312 312 312 311 311 310 308 307 306 305 305 304 303 302 300 299 298 298 296 295 295 295 294 293 293 294 294 294 294 295 295 295 296 298 299 301 302 303 303 304 304 305 305 305 305 305 305 306 306 306 306 305 305 305 305 305 306 309 311 313 314 314 315 317 318 317 319 320 321 320 320 317 315 316 317 320
319 320 320 319 318 316 315 314 314 313 312 312 312 311 310 308 306 306 305 304 303 301 300 299 298 297 297 296 295 294 294 293 293 293 293 294 294 294 294 295 295 295 296 297 298 299 301 302 303 303 304 304 304 305 304 304 304 304 305 306 306 306 306 306 307 307 309 311 314 315 315 315 316 317 317 318 320 320 321 321 319 316 317 318 320
319 320 319 318 316 315 314 313 313 313 313 312 312 311 309 307 306 305 304 303 301 299 298 297 296 296 296 295 294 294 293 293 293 293 293 294 294 294 294 295 295 295 296 296 296 297 298 299 301 302 302 303 303 304 304 304 304 304 304 305 305 305 306 306 307 307 307 309 311 312 313 314 315 316 317 317 319 320 320 320 320 319 319 319 319
318 319 319 318 316 315 314 313 312 313 312 312 311 310 308 307 306 305 303 301 299 297 296 296 295 295 294 293 293 293 292 293 293 293 294 294 294 295 295 295 295 295 296 296 296 296 296 297 298 299 300 301 302 303 303 303 303 302 303 303 304 304 305 306 306 307 307 307 308 309 311 311 312 314 316 316 317 319 320 319 319 319 319 319 319
317 318 318 317 316 315 314 313 312 312 312 311 310 309 307 306 305 304 301 299 297 295 294 294 294 294 293 292 292 292 292 292 293 293 294 294 295 295 295 295 296 296 296 296 296 297 297 297 297 297 297 298 299 300 301 302 302 301 302 302 302 302 304 304 304 305 305 305 306 307 308 308 308 311 313 315 316 318 319 319 319 319 318 318 319
316 317 317 316 316 315 314 313 312 312 311 310 309 307 306 305 304 302 299 296 295 295 294 294 293 293 292 292 292 292 292 293 293 293 294 294 295 295 295 295 295 295 296 297 297 297 298 298 298 298 298 298 298 298 299 300 300 300 300 300 301 301 301 301 302 302 303 303 303 304 306 306 306 308 311 313 315 316 317 318 318 318 317 317 318
314 317 317 317 316 314 313 312 312 311 310 309 307 306 305 303 301 299 297 296 295 295 294 294 293 293 292 292 292 293 293 293 293 294 294 295 295 295 295 295 295 295 296 296 296 296 297 297 297 298 298 298 299 299 299 299 299 299 299 299 300 300 300 300 301 301 301 302 302 303 305 306 307 308 310 311 314 314 315 316 316 316 316 315 316
314 316 316 316 315 314 313 312 311 310 308 307 305 304 303 301 298 297 296 296 296 296 295 295 294 294 293 293 293 293 293 293 293 294 295 295 295 295 295 295 295 295 295 296 295 295 295 295 296 296 296 296 297 297 297 298 298 298 298 298 298 299 299 299 300 301 302 303 303 303 305 307 308 309 310 311 312 313 313 314 315 315 316 315 314
314 315 314 314 314 313 312 311 309 308 306 305 304 302 300 298 296 296 296 296 297 297 296 296 296 295 294 294 293 292 293 293 294 294 295 295 295 294 294 294 294 294 295 295 295 295 295 295 295 295 295 295 295 295 296 296 296 297 297 297 297 297 298 298 299 300 301 302 303 304 305 306 307 308 309 310 312 312 312 312 312 313 314 314 313
313 314 313 313 312 311 310 309 307 305 304 303 301 299 297 296 296 296 296 296 296 296 296 296 296 296 295 295 294 293 293 294 294 295 295 295 294 294 294 294 294 294 294 294 294 295 295 295 294 294 294 294 295 295 295 295 296 296 296 296 296 296 297 297 298 299 300 302 303 303 304 305 306 308 309 310 311 311 311 311 311 310 310 310 311
Wind_Speed
9 9 8 9 9 10 11 12 11 10 11 10 8 7 7 8 7 11 12 9 10 10 10 11 9 8 10 11 10 10 10 11 9 7 7 5 5 5 2 2 2 2 3 3 4 4 4 5 4 4 3 3 3 3 3 4 5 5 5 4 3 2 1 2 2 2 2 1 1 1 2 3 4 6 8 9 11 13 15 16 16 16 15 14 13
11 11 10 10 10 11 13 14 13 11 12 11 11 9 7 7 6 10 13 10 9 10 11 10 10 9 9 10 10 10 11 11 9 7 7 6 6 7 3 2 1 1 1 2 3 4 4 4 4 4 3 3 3 3 3 4 5 6 7 7 6 4 2 2 2 2 2 2 2 1 1 2 3 4 6 7 9 10 12 14 15 15 14 13 13
12 12 12 11 10 11 11 13 13 13 13 12 12 10 8 7 6 7 11 11 9 9 10 10 10 10 9 10 11 10 11 11 10 9 8 7 6 7 5 4 4 3 2 1 1 3 3 4 4 4 3 2 2 3 3 4 5 6 8 8 8 6 4 3 3 3 3 3 3 2 1 0 1 2 4 5 7 8 10 12 13 14 13 13 12
12 13 13 12 11 11 11 12 14 15 15 13 11 10 8 7 5 5 9 12 12 10 9 9 9 10 10 10 11 11 11 11 11 10 8 8 7 7 7 7 6 5 4 2 2 1 2 3 3 3 3 3 2 3 3 4 5 6 8 9 9 9 7 5 4 4 4 4 4 3 3 2 1 1 2 3 5 7 8 10 11 12 12 12 12
12 13 13 12 10 10 11 12 13 15 15 13 11 10 9 8 5 3 7 9 11 11 9 9 10 10 11 10 11 12 12 12 12 11 10 9 9 8 8 8 7 7 6 5 3 2 1 2 2 3 2 2 2 2 4 5 5 5 6 8 9 10 9 8 6 5 5 5 5 5 4 4 3 1 1 2 3 4 6 8 9 10 11 11 11
14 12 11 11 9 10 10 10 11 14 15 14 12 11 10 7 3 3 6 6 8 10 9 9 10 9 10 11 11 11 12 13 13 12 12 11 11 11 9 9 8 8 8 7 5 4 3 2 2 2 2 1 1 2 4 4 4 4 4 6 7 9 10 10 9 7 7 7 7 6 6 5 5 3 2 2 3 3 4 5 7 9 10 10 11
13 13 10 9 9 9 10 8 8 12 16 16 13 12 11 8 5 6 8 7 7 9 9 9 9 8 9 10 11 11 12 13 13 12 12 12 12 12 10 10 9 9 9 9 8 7 6 5 4 3 2 2 2 2 3 3 2 2 2 4 5 6 8 9 10 9 8 9 9 8 7 6 6 5 4 3 3 4 3 4 5 7 8 9 10
10 11 9 8 8 8 10 9 9 11 15 17 15 13 12 10 9 9 9 9 9 9 9 9 9 9 9 8 9 11 12 12 12 13 11 12 12 11 11 10 10 11 11 10 9 9 8 7 6 5 3 3 2 2 2 3 3 1 2 3 3 3 5 7 9 10 10 10 10 10 9 8 7 7 6 4 4 4 4 4 4 5 7 8 9
8 9 9 10 9 8 10 9 9 11 14 16 16 15 14 14 13 12 12 12 11 11 12 11 11 11 10 9 9 9 10 10 11 12 12 12 12 11 11 10 11 12 11 10 10 10 10 9 8 7 5 4 3 1 1 2 3 3 0 3 4 3 2 3 5 8 10 10 10 10 10 9 8 8 7 6 5 5 5 4 3 4 6 7 8
6 7 7 9 9 8 9 9 9 12 12 13 16 17 17 16 16 16 15 14 14 14 15 14 12 12 12 12 12 11 10 10 11 11 12 12 11 11 10 10 11 11 11 11 10 10 10 10 10 10 8 7 5 4 3 2 2 3 2 1 3 3 2 1 1 4 7 10 10 9 10 11 10 9 8 7 6 6 5 5 4 3 5 6 7
6 6 6 6 7 7 8 8 9 11 11 12 13 16 17 18 17 17 18 17 16 17 18 17 15 14 14 14 14 13 12 11 11 12 12 12 12 12 11 11 12 11 11 11 10 10 10 10 10 11 10 9 8 7 6 5 3 3 2 1 0 1 1 1 3 5 5 8 10 9 8 10 10 10 9 8 7 7 6 6 5 4 4 5 6
5 6 7 6 6 7 7 8 9 10 10 10 11 13 16 18 18 18 18 19 18 18 18 18 17 16 16 17 16 15 14 13 12 12 13 13 13 13 13 13 12 11 11 11 10 10 10 10 11 11 11 11 11 10 9 9 7 5 3 2 2 1 1 2 2 5 5 4 7 9 9 8 9 10 10 9 8 7 7 6 6 5 4 4 5
4 4 5 5 6 7 7 7 7 8 9 8 9 11 13 15 17 18 19 20 20 20 19 17 17 15 15 16 16 16 17 16 14 13 13 13 13 13 13 13 13 12 11 12 12 11 10 10 11 11 11 12 13 12 11 11 10 8 6 4 3 4 3 2 1 3 4 4 5 9 11 10 9 9 10 9 9 8 8 7 6 6 5 4 5
6 5 4 3 4 6 7 7 6 7 8 7 7 9 11 12 14 15 16 18 19 19 19 18 16 13 11 11 11 12 15 16 16 15 14 12 12 12 13 13 13 12 12 12 12 11 11 10 10 10 11 12 12 13 12 11 10 9 8 6 5 6 6 5 3 3 4 5 5 7 11 13 11 9 9 8 8 7 8 8 7 7 6 5 4
2 4 4 4 2 3 5 6 5 6 7 6 5 6 7 9 11 14 14 15 15 14 16 17 14 10 8 10 9 8 9 11 13 14 14 12 12 12 12 12 12 12 13 13 12 12 11 11 11 11 10 10 11 12 12 11 10 9 8 7 6 7 7 7 7 6 5 6 6 6 9 14 14 11 9 8 6 6 8 8 8 7 7 6 5
3 3 4 4 2 2 3 4 4 4 3 3 4 4 4 4 8 11 12 13 12 12 15 15 13 9 7 7 7 7 6 7 9 11 11 10 12 13 12 12 12 12 12 13 13 12 11 12 12 12 12 11 11 11 11 11 11 10 10 8 7 8 8 8 9 9 8 7 8 7 7 10 15 15 12 10 8 7 7 8 9 9 8 8 7
5 5 5 5 4 3 3 4 5 4 3 2 3 3 4 4 5 7 8 10 11 12 14 14 13 10 8 6 5 5 4 5 7 8 9 8 9 11 11 12 12 11 12 12 13 13 13 13 13 13 13 12 12 12 12 13 13 13 11 10 9 9 9 9 10 10 10 9 9 9 8 8 13 16 15 12 11 10 9 9 9 10 10 10 9
7 6 5 6 5 4 4 4 4 4 4 3 4 4 3 3 3 3 4 7 8 9 10 12 12 10 9 8 7 6 6 6 6 6 7 8 10 10 9 9 9 9 10 10 11 11 12 12 12 13 13 12 12 12 13 14 15 15 13 11 10 10 10 10 10 11 12 11 10 10 11 9 10 15 17 16 14 13 12 11 10 10 11 11 11
8 7 6 6 6 5 5 6 5 4 4 4 5 5 5 3 2 2 1 3 4 5 5 6 6 7 9 9 9 9 9 9 9 8 7 9 12 10 8 7 8 7 7 7 8 9 11 12 12 13 13 13 13 13 13 14 14 14 13 12 11 11 11 11 12 13 13 14 12 12 12 12 11 13 16 18 18 17 16 14 13 12 11 12 13
7 8 7 7 7 7 6 7 6 6 5 5 5 5 4 3 2 2 2 2 2 2 2 1 2 3 5 6 6 6 7 8 8 9 8 10 13 9 6 8 9 8 8 8 6 7 9 10 10 10 11 12 12 12 12 13 14 15 15 14 14 14 14 14 15 15 15 15 15 14 13 12 13 14 15 18 19 19 19 18 16 15 14 14 14
7 8 8 8 8 8 8 8 8 8 7 5 5 5 4 3 2 2 2 3 2 2 2 1 1 2 2 3 4 4 5 6 6 7 7 9 10 9 8 8 8 8 9 10 10 11 11 11 10 10 10 11 11 11 12 13 14 15 16 17 17 17 17 16 17 17 16 15 16 16 15 14 14 15 16 17 18 20 21 21 20 18 17 16 16
6 6 7 7 7 8 8 8 8 8 7 6 6 6 5 5 4 3 2 1 1 1 2 2 3 3 2 2 3 4 4 5 5 6 6 7 8 9 9 8 7 7 8 10 11 12 12 12 13 12 11 12 12 12 12 14 14 14 15 17 18 19 19 18 19 18 17 16 16 16 16 16 16 16 17 17 18 20 21 22 22 21 20 20 19
4 5 4 4 5 5 5 6 6 7 7 7 7 7 7 7 7 6 5 4 3 2 1 2 3 5 4 4 5 6 5 5 5 5 5 7 8 9 9 9 9 8 9 10 10 11 11 11 12 12 12 12 12 11 12 13 14 15 16 17 17 18 19 19 19 19 18 17 17 16 17 17 17 17 18 18 18 20 21 22 22 22 22 23 22
4 4 3 3 3 3 3 3 4 5 6 6 6 6 6 7 7 7 6 6 5 5 4 4 3 4 4 5 6 7 7 8 8 7 6 6 8 9 9 9 9 9 8 10 11 12 11 11 11 11 11 10 9 10 12 12 13 15 16 17 18 18 18 19 18 18 17 18 18 18 18 18 19 19 19 20 19 20 21 22 22 22 22 23 24
5 4 3 3 2 2 2 2 2 3 4 4 5 5 5 5 5 5 5 5 5 5 5 5 5 5 5 5 6 7 8 9 9 9 9 8 7 8 9 9 10 11 11 11 12 11 10 10 10 10 9 8 8 9 11 10 11 15 16 17 19 19 20 20 19 17 17 18 18 17 17 18 19 21 21 22 22 22 22 23 24 23 22 22 23
6 5 4 3 3 2 2 1 1 1 2 3 3 3 3 4 4 5 5 5 5 5 5 5 5 5 5 6 6 6 7 8 9 10 11 10 8 9 10 10 11 12 12 11 11 10 9 8 8 9 8 9 8 9 11 10 11 15 16 15 17 18 20 22 21 20 18 18 18 18 19 19 20 22 23 24 26 26 26 24 25 26 25 22 21
8 7 6 5 5 4 3 2 2 2 2 2 2 2 2 2 3 4 4 5 5 6 6 6 6 6 6 6 7 7 7 8 8 8 10 11 11 12 12 11 11 11 10 10 10 9 9 8 9 9 8 9 9 10 12 10 10 14 15 14 15 16 18 20 22 23 22 22 22 22 22 22 22 23 25 26 28 29 29 27 26 28 28 25 22
10 9 7 7 6 6 5 5 4 3 3 3 2 2 1 1 1 3 4 5 6 6 7 7 7 7 6 6 6 7 7 7 7 8 8 9 10 12 12 10 10 11 11 10 9 8 7 6 6 6 6 7 8 10 12 9 10 15 14 12 13 15 16 18 20 22 23 24 25 25 25 24 24 25 26 28 29 31 32 30 28 29 30 28 24
11 9 9 9 9 8 7 7 6 6 5 5 4 4 3 2 2 2 3 4 6 6 7 8 8 8 7 7 6 6 7 7 7 7 8 8 8 9 10 9 9 10 11 11 11 9 8 7 7 7 6 7 9 11 12 11 14 19 17 15 16 16 18 19 19 20 21 22 23 24 24 24 25 26 27 28 30 32 34 34 32 31 31 30 26
13 11 10 10 10 10 10 9 9 8 7 7 6 6 6 5 5 4 4 4 5 6 7 8 9 9 9 8 7 6 7 8 8 8 8 8 9 9 9 9 9 10 11 12 13 12 11 10 9 8 8 9 12 14 16 17 20 23 22 22 22 21 22 24 22 21 21 21 22 22 23 23 25 26 28 28 29 32 35 35 34 33 33 32 29
16 14 13 12 12 12 12 12 11 11 10 9 8 8 8 8 8 7 6 5 5 6 7 8 9 10 11 11 10 9 10 10 10 10 10 8 8 8 9 10 11 12 13 13 14 13 12 11 11 12 14 17 19 22 23 23 23 24 23 23 23 23 26 28 26 25 24 23 23 23 23 24 25 26 26 27 29 30 32 35 36 36 35 34 32
19 17 16 15 14 14 14 13 13 13 12 11 10 10 10 10 10 10 9 8 8 7 8 9 10 11 12 13 12 13 14 12 11 12 12 11 10 8 9 10 11 13 14 14 15 16 15 15 16 18 19 21 23 24 24 23 22 24 24 23 22 22 24 25 23 25 28 27 26 25 25 26 26 26 26 27 27 27 29 33 36 38 37 36 36
20 20 19 18 17 16 15 15 15 15 14 13 12 11 11 11 11 12 11 10 10 10 10 11 12 12 13 14 15 16 17 15 14 12 10 12 13 10 10 10 10 12 13 14 16 17 17 16 16 17 18 21 23 21 21 22 22 24 25 25 24 23 21 19 18 20 24 27 27 26 27 28 28 29 29 28 28 27 27 28 32 36 39 39 39
22 22 21 20 19 19 18 17 17 17 16 16 14 13 13 13 13 13 12 12 12 12 12 12 13 14 14 15 16 17 18 18 17 13 10 11 10 8 9 11 11 12 13 14 16 17 18 17 16 16 18 20 21 20 20 22 23 24 24 24 24 21 18 16 16 17 20 25 27 27 27 28 29 30 31 31 30 28 28 26 26 30 35 39 41
23 23 23 23 22 21 21 20 19 19 19 18 17 16 15 15 15 14 13 12 12 13 13 13 13 14 15 15 16 18 18 18 18 15 13 13 11 8 10 12 13 14 15 17 18 18 19 19 19 17 16 18 20 20 19 20 22 23 22 23 22 20 17 16 17 17 19 24 27 27 26 27 29 30 31 31 31 30 30 28 26 26 29 34 38
26 25 24 24 24 24 23 23 22 22 21 21 20 18 18 17 17 16 14 13 13 14 14 14 14 14 15 16 16 18 18 17 17 15 13 13 13 11 11 12 12 14 16 18 19 19 19 20 21 20 20 21 22 21 19 19 21 21 20 20 20 18 17 17 16 16 20 25 29 30 27 26 27 28 29 31 31 31 31 30 28 27 28 30 34
29 28 27 27 27 27 26 26 25 25 24 23 22 21 20 20 18 17 16 15 15 15 15 16 16 16 16 17 17 17 17 17 17 15 14 14 14 14 13 13 12 12 14 16 17 18 19 20 21 22 23 24 24 23 21 21 20 19 18 18 18 18 20 20 19 18 20 23 25 28 29 29 28 27 28 29 30 31 31 31 30 29 30 31 32
31 31 31 31 30 29 28 28 28 27 27 26 24 23 23 22 20 18 17 17 17 17 17 17 17 17 17 17 17 17 17 17 17 16 16 16 16 16 15 15 14 15 17 18 19 19 20 20 20 20 20 21 22 24 23 22 21 21 20 20 19 18 17 19 18 17 18 19 20 23 27 30 31 29 28 28 29 30 30 31 31 30 31 32 32
33 34 33 32 32 31 29 30 30 29 28 27 25 25 25 23 21 20 19 18 18 19 18 17 17 18 18 18 18 17 17 16 16 16 17 17 17 17 16 16 16 16 17 19 20 21 21 22 21 20 19 18 18 21 22 21 22 24 23 19 16 13 12 14 15 15 16 17 19 20 23 27 31 32 30 28 28 29 30 30 31 31 31 31 32
31 33 32 31 32 33 32 32 31 31 29 27 26 26 25 23 22 21 20 20 20 20 19 18 18 18 18 19 18 18 17 18 17 17 17 17 17 18 17 17 17 17 17 18 19 20 21 23 23 21 20 19 19 19 19 18 19 19 17 16 17 20 21 21 20 18 17 18 18 18 19 22 26 30 31 30 30 30 30 30 31 31 31 31 32
25 26 26 27 31 34 35 35 35 34 32 30 28 28 26 24 23 22 21 21 21 21 20 19 19 19 19 20 20 19 19 19 19 19 18 18 19 19 19 19 19 19 18 18 18 19 19 21 21 21 20 20 20 19 17 15 15 15 17 20 26 28 27 26 25 22 20 19 19 19 18 19 20 22 25 26 26 28 30 32 32 31 30 31 31
21 22 22 25 30 34 37 38 37 36 34 33 32 30 27 24 23 22 22 22 22 21 20 20 20 20 20 21 22 23 22 21 21 21 20 20 20 21 21 21 21 21 21 21 20 20 20 21 21 21 20 20 19 19 20 20 19 19 20 21 23 24 24 26 26 23 19 17 18 18 18 17 18 20 21 20 21 25 27 30 33 33 30 30 30
20 22 22 24 27 31 36 39 38 37 38 37 33 30 27 24 22 22 22 22 22 21 20 20 19 20 21 22 23 24 24 23 23 23 23 23 23 23 23 23 23 23 24 25 25 24 23 23 23 22 22 22 20 19 21 22 21 20 19 18 19 20 20 21 21 20 17 14 14 16 17 15 16 19 21 19 20 23 23 24 30 32 29 29 30
19 21 22 23 24 29 35 39 39 39 39 36 32 30 27 24 23 22 21 21 21 20 19 19 19 20 22 23 23 24 25 24 24 24 25 26 27 27 27 26 26 26 25 26 27 27 27 27 26 25 24 23 22 20 19 19 20 19 19 19 20 20 20 20 20 19 19 18 17 17 18 17 16 17 21 21 19 21 22 23 26 28 28 29 30
16 19 20 21 24 28 34 37 39 39 37 34 31 29 26 24 23 22 21 21 19 18 19 19 20 21 22 22 23 24 25 26 26 26 26 26 27 29 30 30 29 29 29 28 28 29 29 30 30 31 30 27 25 23 20 19 20 20 20 20 19 19 20 20 20 20 20 20 20 19 21 20 18 17 20 21 20 20 23 24 23 25 26 28 28
16 17 17 18 22 28 32 36 39 39 36 33 30 28 25 23 23 21 20 20 18 17 18 19 20 21 22 22 23 23 24 26 26 27 26 27 28 29 30 30 30 30 30 29 28 28 28 29 31 32 31 30 29 28 24 21 21 21 22 22 22 22 22 22 23 22 22 24 23 22 24 24 23 22 20 19 19 21 24 25 23 23 24 25 26
17 17 16 17 22 28 32 36 39 38 34 30 27 25 23 22 21 19 19 18 17 17 19 20 22 23 23 24 24 24 25 25 27 28 28 28 29 30 30 31 31 30 26 22 21 23 23 24 26 26 24 24 25 26 25 23 23 23 23 23 23 22 22 23 26 26 28 29 27 26 27 27 25 24 22 19 18 19 24 27 26 23 22 21 22
18 19 19 20 23 28 32 37 39 36 31 27 24 22 20 19 18 17 16 16 17 17 19 21 22 24 25 26 25 25 25 26 27 29 29 29 30 31 31 31 31 29 25 21 22 26 26 27 28 28 27 26 26 27 26 25 26 26 25 23 22 22 23 26 27 28 28 28 28 27 27 25 22 22 22 20 18 18 21 24 26 26 24 21 19
18 18 19 20 22 28 33 37 37 32 26 23 21 19 18 16 16 14 13 13 13 15 17 19 20 22 25 27 27 27 27 28 29 30 30 30 31 31 31 31 29 27 24 22 23 26 28 29 31 32 34 36 35 35 34 33 33 31 31 29 24 23 27 29 28 27 25 23 24 23 24 24 22 20 22 20 18 21 23 23 26 28 27 23 19
17 17 18 20 23 28 33 35 32 27 22 19 17 16 14 14 13 12 10 10 11 13 15 16 17 20 23 26 28 30 30 30 31 33 32 30 30 30 30 27 25 24 22 21 22 22 24 26 28 28 30 31 33 34 35 36 36 36 39 38 29 25 30 32 29 27 25 23 21 20 23 25 22 20 21 19 19 24 27 27 30 32 29 26 23
18 17 18 21 26 30 32 30 25 21 18 16 14 12 11 11 12 12 11 10 11 13 15 15 16 19 22 24 27 29 31 32 34 36 35 31 30 30 27 23 23 22 20 20 20 21 21 21 22 23 23 23 24 26 26 28 30 32 37 40 32 28 32 33 29 27 27 24 19 19 24 25 21 20 22 19 19 22 22 24 30 31 29 30 29
Wind_Direction
214 219 220 218 211 211 213 208 202 206 216 215 215 222 234 245 250 247 241 229 219 216 215 222 231 228 221 222 223 225 219 211 211 209 211 199 197 228 219 140 144 135 151 154 150 141 128 127 130 138 149 173 190 203 212 215 218 221 224 235 258 271 196 168 168 172 170 151 110 79 53 52 45 38 36 37 42 46 47 47 46 45 47 49 51
222 224 226 227 229 228 226 220 210 209 215 217 220 221 230 241 240 237 230 220 216 215 215 217 223 229 225 222 221 227 228 218 212 210 217 214 204 223 257 307 246 158 160 167 171 167 151 138 134 136 143 155 164 177 195 203 208 214 220 225 237 247 234 188 186 194 191 190 177 151 57 41 45 36 32 34 38 43 46 47 47 45 45 47 49
227 228 229 233 245 247 238 228 219 216 220 223 227 228 238 241 232 229 219 208 209 213 216 215 219 224 223 223 219 222 229 224 215 213 218 223 224 227 244 275 289 282 245 208 203 194 183 167 149 147 148 149 161 171 189 203 205 210 216 220 226 234 238 219 196 203 208 204 202 196 204 278 34 30 22 27 32 37 41 44 46 45 45 45 48
225 228 231 234 242 250 245 235 226 220 220 224 228 229 241 254 252 232 212 203 206 209 212 213 218 221 219 219 219 220 227 230 223 219 221 225 233 236 238 252 269 275 263 239 234 245 214 197 183 164 146 140 162 184 194 205 210 211 214 216 220 226 234 234 214 209 217 214 211 210 209 223 244 355 2 9 21 29 35 37 41 43 43 44 46
224 226 233 237 236 243 245 238 230 221 217 219 223 225 238 258 273 235 209 202 203 209 212 214 221 223 220 216 216 217 222 230 229 225 227 230 236 240 240 244 247 255 261 252 236 241 249 227 219 204 181 153 159 195 200 204 209 213 219 216 216 223 230 233 229 216 218 224 219 215 214 217 226 231 293 336 355 16 27 29 33 37 39 41 43
228 229 239 243 235 239 247 241 230 222 217 217 219 223 234 246 241 197 206 205 200 209 216 219 224 230 230 226 222 219 219 224 229 231 233 234 236 239 240 239 237 241 248 253 250 245 248 250 244 230 235 240 220 222 209 202 196 203 225 223 218 223 228 233 236 230 223 227 229 224 217 215 221 225 236 284 316 342 10 21 25 29 32 34 37
230 230 238 247 238 233 239 236 227 223 220 220 220 218 219 218 204 193 203 211 207 210 218 220 222 228 235 235 230 226 223 223 225 228 232 236 239 242 240 236 236 234 232 241 251 252 251 253 253 246 263 291 309 280 234 220 204 170 188 207 214 219 225 233 239 243 239 233 234 232 226 219 221 223 224 242 278 306 331 1 15 20 24 27 30
234 233 232 238 237 229 231 230 224 223 221 221 223 217 209 205 203 200 200 208 211 211 214 216 221 226 229 235 236 234 231 229 227 226 228 233 237 240 242 240 242 238 229 231 241 247 249 252 256 255 252 260 295 319 273 247 247 226 116 150 182 192 210 227 239 250 255 251 243 237 234 226 222 225 225 231 251 275 298 326 355 8 15 19 22
236 240 234 235 239 235 232 229 225 226 220 219 220 215 211 210 208 204 203 208 212 215 218 218 224 230 233 237 241 240 235 232 232 227 223 227 229 233 238 238 242 244 241 236 235 240 246 252 258 257 249 244 245 257 272 269 258 251 142 122 137 133 158 209 240 253 261 263 255 244 239 232 225 225 227 228 238 257 275 294 322 351 4 10 13
230 236 237 238 238 235 234 231 229 229 223 222 223 220 218 218 216 212 209 212 214 219 224 225 230 236 241 244 244 243 236 230 231 227 220 222 224 224 229 230 232 236 240 239 235 234 239 245 255 260 255 246 237 230 229 243 255 248 250 171 138 122 91 88 296 281 269 265 261 250 242 237 230 226 228 229 233 247 261 276 296 327 349 0 5
229 228 230 238 233 229 230 225 223 226 226 225 226 228 226 224 224 221 217 217 220 224 227 228 232 236 240 243 244 244 238 230 228 226 222 221 222 221 223 226 227 227 230 235 238 238 240 242 248 257 254 247 242 238 236 233 235 243 253 279 204 120 51 18 354 338 298 266 261 253 242 239 236 229 229 232 232 241 254 266 280 298 330 346 355
230 228 227 226 228 229 223 216 216 220 223 221 223 231 232 228 228 230 228 225 226 229 230 230 233 240 245 246 243 241 242 241 236 229 227 226 225 222 223 227 229 229 228 230 234 238 244 246 247 249 247 248 249 243 242 243 239 235 232 262 276 283 1 356 338 339 329 284 263 254 240 235 241 236 229 232 235 238 249 260 272 283 304 328 342
219 221 225 220 223 227 227 225 223 225 225 219 219 229 234 231 228 232 233 231 231 232 232 232 238 248 252 247 242 239 238 242 242 238 234 231 229 226 224 226 228 229 229 229 230 230 235 242 245 247 243 245 247 241 240 247 245 236 223 227 256 274 302 323 304 315 332 331 281 254 240 232 239 238 228 229 235 237 245 254 265 275 286 307 329
224 215 199 200 219 224 228 229 229 237 237 226 218 227 233 230 229 232 232 231 233 235 235 235 239 245 246 245 245 240 235 236 240 243 240 233 232 230 226 226 226 225 226 226 227 227 229 235 238 241 241 241 242 239 237 243 248 237 223 221 238 258 275 282 275 283 314 325 306 270 245 234 232 233 228 224 232 238 242 248 257 266 276 288 308
217 211 177 166 192 215 221 220 222 238 241 227 210 220 231 228 230 233 233 230 228 228 229 229 228 229 240 251 253 244 237 237 240 245 243 234 234 235 230 230 228 226 230 231 230 228 226 230 233 236 239 237 239 241 237 238 243 231 219 227 237 246 259 267 272 275 282 291 293 290 264 241 230 228 226 222 229 240 241 241 247 256 264 273 283
113 116 140 144 140 159 189 197 206 218 222 207 184 190 204 206 216 221 225 227 222 219 218 215 214 221 236 246 247 240 233 235 241 251 254 243 239 239 232 233 234 233 238 240 240 238 229 226 227 231 235 233 231 234 233 236 242 229 217 224 235 243 249 253 263 267 268 277 282 289 288 253 235 230 226 226 232 238 237 236 240 249 256 262 269
104 110 126 127 127 132 138 164 188 189 181 163 150 163 169 175 198 207 214 218 221 221 214 206 208 220 230 234 244 245 240 244 246 255 257 246 242 238 230 233 236 236 238 241 246 247 241 235 230 229 233 232 229 228 226 228 236 235 226 222 227 240 245 243 251 257 260 270 275 275 282 267 242 235 231 230 234 235 235 235 238 244 251 257 265
95 107 118 122 125 127 123 133 157 167 158 127 113 119 132 154 190 201 214 218 217 215 208 205 210 221 237 247 255 256 263 268 266 271 266 254 246 230 220 232 234 232 237 240 244 245 243 241 238 236 238 239 237 234 232 230 232 235 235 231 225 233 241 237 240 247 250 256 263 263 266 267 252 241 237 236 238 238 239 240 239 243 250 256 262
90 96 103 113 119 124 129 129 129 135 136 126 121 124 128 134 153 158 184 214 209 201 200 203 208 227 246 252 253 255 262 266 268 276 279 272 258 230 202 211 216 214 223 232 238 242 243 243 244 247 246 245 244 243 244 244 242 240 240 241 236 234 236 234 234 240 245 246 250 253 256 259 255 247 243 242 242 242 244 246 242 241 248 254 258
91 93 97 103 109 115 123 128 127 124 128 145 155 154 158 170 183 174 161 181 194 180 171 157 189 226 242 245 248 257 267 267 267 269 271 279 277 263 237 229 228 227 225 225 226 234 245 246 243 246 249 246 245 248 248 247 248 248 244 242 241 239 236 233 234 238 241 240 242 246 250 250 251 249 246 243 243 243 246 250 249 246 247 251 255
101 100 100 100 103 104 108 117 123 122 124 142 158 157 156 161 174 188 193 219 233 184 152 140 195 212 220 250 266 276 279 273 272 275 271 274 279 281 279 269 266 261 244 240 238 239 247 247 240 240 245 249 250 252 252 249 249 252 249 241 239 242 239 234 236 238 238 237 237 240 244 246 249 252 250 246 243 242 244 249 253 252 250 252 255
114 109 105 103 100 99 102 107 113 118 119 121 121 113 110 108 108 114 125 179 254 216 207 226 244 245 237 247 264 273 280 277 279 290 289 281 279 279 282 285 283 273 265 260 253 249 254 256 254 249 246 250 253 254 253 253 253 251 250 247 242 242 243 240 239 240 241 241 237 236 240 243 245 250 253 251 247 244 244 247 249 250 251 255 257
137 124 117 108 100 97 100 104 107 110 109 106 101 96 94 90 85 82 77 66 57 46 342 283 278 278 262 242 248 255 257 254 259 277 287 285 283 280 279 283 279 272 275 271 261 259 260 261 263 260 255 252 251 250 250 253 256 252 251 251 247 244 245 244 242 242 244 244 239 235 236 239 241 243 248 252 251 247 246 247 248 248 250 254 257
171 158 148 132 117 110 103 105 109 109 110 108 105 99 91 82 75 69 60 52 44 37 28 15 344 321 299 274 270 269 261 254 253 257 263 269 277 278 277 283 282 275 275 275 275 275 265 257 259 261 261 258 253 249 249 252 258 258 254 251 248 242 239 240 239 239 240 240 239 237 237 239 241 241 243 247 251 250 248 248 250 250 250 252 253
201 196 186 175 166 155 137 125 116 116 124 125 121 112 93 76 62 55 53 47 39 30 23 18 12 358 342 325 307 293 283 278 274 271 269 271 277 280 279 283 284 279 278 278 279 279 267 257 255 254 254 258 255 250 251 255 259 261 257 252 250 245 238 236 235 233 232 233 236 238 239 241 242 244 244 244 247 250 251 251 251 253 254 252 250
219 223 220 211 209 209 203 190 168 152 153 148 136 118 95 73 54 47 46 43 42 38 27 21 18 11 3 353 341 326 316 310 303 293 288 285 282 281 284 289 288 284 284 280 275 274 267 258 254 253 255 259 258 256 259 257 255 261 263 259 257 253 247 242 238 234 229 230 240 247 248 248 247 245 244 244 245 247 250 252 254 255 255 254 251
221 231 233 228 230 233 237 239 235 230 219 196 169 136 109 80 54 45 42 38 38 37 33 29 23 20 16 7 0 353 344 336 328 316 303 295 288 285 288 295 297 293 289 287 283 277 271 270 267 261 260 261 258 258 259 255 258 267 267 263 263 262 258 253 247 244 240 241 250 258 258 256 252 247 243 242 243 244 246 249 253 255 255 255 254
224 233 232 232 238 241 246 252 254 256 251 240 228 206 176 118 35 25 30 28 27 29 29 28 27 25 23 19 13 1 353 348 340 331 319 308 299 293 289 288 292 294 295 294 291 284 282 287 277 261 260 263 260 258 257 258 270 270 267 266 266 264 261 256 253 252 251 252 256 260 260 257 253 248 243 241 240 241 244 245 247 250 253 255 256
234 238 232 231 236 239 247 254 257 259 258 257 257 252 252 255 283 337 358 7 12 15 14 14 15 15 15 18 17 3 352 351 343 333 327 320 310 302 294 282 274 280 288 290 288 283 279 281 275 271 276 273 268 267 263 262 264 262 261 266 267 267 264 259 255 255 255 257 259 259 257 253 250 248 245 241 239 238 240 243 244 246 249 253 255
241 242 236 233 234 235 241 247 252 256 257 261 265 265 268 269 274 291 312 335 350 357 359 359 0 0 0 3 7 1 350 347 343 337 333 326 319 312 303 289 274 271 273 278 283 281 276 278 276 270 270 268 268 274 274 273 274 271 268 266 265 267 267 261 257 257 256 258 258 257 255 250 246 245 245 243 241 238 238 240 243 244 247 250 252
244 245 242 240 239 238 240 243 247 251 254 257 263 267 270 273 276 279 288 304 318 329 338 342 345 348 348 350 355 353 349 349 344 339 337 329 323 312 298 290 282 279 276 275 278 279 277 277 272 267 270 273 275 279 283 285 287 285 281 274 270 267 266 264 263 262 258 255 256 256 255 252 247 244 243 243 241 240 239 240 242 243 245 247 249
247 247 247 246 246 244 245 247 247 249 250 252 256 261 267 271 275 278 281 290 298 308 318 324 332 338 340 341 342 342 344 347 341 336 334 329 326 315 295 287 282 282 283 277 274 276 279 279 277 279 280 281 283 287 289 290 290 288 287 285 281 276 272 271 270 268 263 258 257 256 255 254 251 248 245 243 243 242 242 242 242 243 244 245 246
247 249 248 249 250 249 249 251 252 252 253 252 252 254 260 264 269 275 279 285 291 300 308 315 322 328 334 336 335 335 337 337 336 335 328 322 326 324 309 301 291 282 282 279 278 281 284 284 283 284 285 285 288 289 289 288 286 286 288 289 287 287 285 279 273 272 272 266 260 257 255 254 252 251 250 248 247 245 244 244 245 245 245 245 246
247 249 250 250 251 251 251 252 253 254 255 255 255 254 257 261 265 269 274 279 283 288 297 307 315 321 327 330 330 330 331 331 332 332 318 310 314 306 293 296 294 287 284 283 283 285 288 289 287 287 289 290 290 290 289 287 285 286 287 288 288 288 285 276 268 268 272 271 265 259 256 254 252 252 253 252 251 248 246 246 247 248 246 245 246
246 248 249 250 251 250 251 251 252 253 254 256 257 257 258 263 265 267 270 273 276 279 286 295 304 311 318 323 324 324 326 327 326 325 317 311 309 294 283 289 292 291 290 288 286 286 289 291 291 291 290 290 292 294 293 290 290 290 287 285 285 284 278 271 269 269 269 270 268 263 258 257 255 253 253 254 253 250 248 245 246 249 248 246 246
248 247 247 249 250 249 248 249 249 251 254 257 259 259 260 262 265 270 274 275 277 278 281 286 292 299 307 314 317 319 321 322 320 319 313 306 303 295 287 289 293 294 294 293 291 290 288 290 291 292 292 293 295 297 295 293 294 295 292 288 284 282 277 271 269 268 264 266 268 266 260 257 258 257 254 255 256 255 252 249 246 246 247 247 246
250 249 247 247 247 246 247 247 247 251 254 257 259 259 258 261 265 271 277 280 283 285 286 287 290 295 301 308 313 315 317 318 317 314 307 301 298 293 286 283 281 282 284 286 287 286 284 284 286 290 293 295 296 296 295 296 296 294 293 289 284 279 276 273 271 266 262 267 272 270 262 258 260 260 257 255 255 256 256 254 250 246 245 246 246
253 250 247 245 244 244 245 246 246 249 252 254 255 255 255 259 264 270 276 281 285 288 289 291 292 295 300 306 309 312 315 316 315 313 309 306 303 298 293 287 282 277 276 278 281 281 281 280 282 285 288 290 292 294 296 297 295 294 293 293 293 289 282 279 277 270 265 267 271 269 264 261 260 261 260 258 256 256 257 256 254 249 245 246 247
254 252 250 248 246 244 243 244 245 246 248 248 248 249 252 257 262 268 274 280 284 286 288 291 292 295 300 304 308 311 312 312 312 311 310 308 305 302 298 293 289 284 281 282 282 282 282 283 283 283 283 284 285 288 292 294 293 295 297 297 294 289 280 274 271 267 266 267 269 271 270 266 262 262 263 261 257 256 256 256 256 253 248 246 246
254 254 253 252 249 245 240 240 242 243 243 241 240 244 249 254 259 264 270 275 280 283 287 289 291 295 300 304 307 309 310 310 309 308 307 305 302 299 295 290 285 282 280 280 280 281 282 283 284 285 284 284 283 284 289 291 291 293 291 284 281 282 282 279 274 270 267 266 266 269 274 272 266 264 265 265 261 257 256 256 257 256 252 248 246
255 254 252 249 246 243 240 238 238 239 238 237 238 242 247 251 255 261 267 272 276 278 282 285 289 294 299 302 304 305 307 307 306 305 305 304 301 298 295 290 284 280 277 275 274 275 276 277 279 281 282 282 282 283 283 281 281 282 279 278 283 288 290 287 283 277 272 270 268 266 266 268 265 261 262 265 263 257 253 253 255 256 256 252 248
249 248 244 243 241 241 240 238 236 236 236 237 240 244 247 250 255 262 267 270 272 274 277 281 286 291 296 300 302 303 305 305 304 304 304 303 301 299 297 293 287 282 276 272 269 269 270 272 273 274 275 275 275 278 279 279 279 280 281 283 285 287 288 288 287 284 279 275 273 269 264 260 258 256 254 255 259 258 254 251 251 253 254 253 249
246 246 244 243 241 239 240 238 236 235 236 239 242 244 245 247 253 260 265 267 270 272 275 278 284 290 295 298 301 303 306 307 307 307 307 304 302 299 296 293 289 285 281 277 273 269 267 268 269 269 270 270 271 271 274 278 280 280 281 281 280 281 281 282 283 282 278 270 266 267 265 258 253 254 252 249 254 259 258 253 250 250 251 251 249
247 250 249 248 244 237 235 234 234 235 238 240 240 239 240 244 250 257 262 266 270 273 277 281 286 291 294 298 301 303 305 306 307 308 308 308 306 303 300 297 293 289 285 281 277 273 269 267 266 266 265 267 270 269 269 272 275 277 277 276 276 277 275 273 272 273 272 266 262 265 264 258 253 254 253 249 247 252 258 258 253 248 248 250 250
244 247 250 251 247 240 236 234 234 236 237 236 234 235 238 244 250 255 261 266 269 274 279 284 289 293 296 300 303 305 307 308 310 311 311 310 309 306 304 302 299 296 292 287 283 278 272 267 264 263 262 263 264 263 263 264 268 272 275 275 275 273 271 270 270 271 271 266 263 265 264 257 252 254 256 252 247 249 256 260 255 247 245 248 250
240 240 245 246 245 244 239 234 232 234 233 231 230 234 239 245 251 255 258 263 269 275 282 288 293 296 299 302 305 308 309 310 311 311 310 309 307 305 303 301 299 297 294 290 287 284 279 274 271 268 266 264 263 262 260 261 265 268 269 271 271 270 270 268 266 264 262 257 257 261 263 261 256 254 255 254 251 249 254 259 256 246 243 246 248
246 239 242 246 247 246 238 231 230 232 230 227 229 234 238 244 250 253 257 266 276 283 288 293 297 299 301 303 306 309 310 310 310 308 307 307 306 304 302 300 298 296 290 282 278 276 272 270 272 273 269 265 263 262 259 257 260 261 263 267 269 268 270 269 266 264 261 258 257 257 261 265 262 257 253 252 250 249 252 258 259 249 241 241 245
253 239 240 248 248 243 234 229 230 229 226 224 226 231 236 242 249 255 265 278 286 290 295 299 301 302 303 304 307 309 309 308 307 304 304 306 305 303 302 300 298 294 287 277 274 275 270 262 258 257 257 257 258 257 254 251 250 249 252 259 263 265 269 270 269 268 267 266 264 258 257 261 260 256 252 248 247 248 248 254 259 251 239 235 241
259 245 243 245 242 238 233 229 225 221 217 218 223 228 234 242 252 262 274 283 285 288 294 298 299 301 302 305 308 309 308 307 305 304 305 306 305 303 302 298 294 289 284 279 277 278 279 274 267 260 258 257 257 256 253 250 249 246 248 254 257 259 264 266 266 266 265 264 261 255 252 254 253 253 253 248 242 241 238 242 250 247 235 230 237
254 247 245 242 239 235 230 224 218 213 212 214 219 228 236 247 258 266 275 281 280 283 289 292 293 296 299 304 308 310 309 307 306 306 307 307 306 304 300 295 290 284 281 279 277 276 277 278 278 276 273 270 267 264 259 255 252 247 246 250 255 257 259 260 262 264 264 260 253 246 247 251 248 246 250 249 242 239 236 238 246 247 240 236 240
246 242 241 239 234 225 217 211 206 203 205 209 217 231 243 255 265 269 276 282 282 283 287 288 289 293 298 302 306 308 307 306 305 307 308 308 307 304 298 290 285 282 281 280 279 277 274 273 274 276 277 277 275 272 269 264 260 253 249 250 251 251 254 255 256 258 261 259 251 243 246 249 247 243 244 244 243 243 238 239 248 253 251 247 245